sat.trackr.live / text

‹ back to catalog

STARLINK-35433

NORAD 65870 · 2025-223S

PAYLOAD ACTIVE UNKNOWN

§ Identity

Operator
Country
US
Launch date
2025-10-03
Launch site
AFWTR
Launch vehicle
Mass (kg)
RCS (m²)

Purposes: comms

External: N2YO · Heavens-Above · Gunter

§ Orbital elements

Epoch: 2026-05-25T03:30:10.747872Z

Period
94.10 min
Inclination
53.1601°
Eccentricity
0.0001044
Mean motion
15.30206521 rev/d
Perigee alt
474.5 km
Apogee alt
475.9 km
Semi-major
6,853.3 km
B*
4.2106e-4
RAAN
298.8872°
Arg perigee
85.5036°
Mean anomaly
274.6084°
Rev number
3,592

§ Raw data

STARLINK-354331 65870U 25223S   26145.14595773  .00012134  00000+0  42106-3 0  99952 65870  53.1601 298.8872 0001044  85.5036 274.6084 15.30206521 35929

JSON: /api/v1/satellites/65870 · /tle

For live sub-satellite position, see the globe view (requires WebGL).

§ Visibility from observer

Set your observer location to see the next 7 days of passes ≥ 10°. The values pass through the URL so the page stays shareable.

No JS? Fill the form by hand. The geolocation button needs JavaScript.